User: anonymous   Login
Location: Pedholt
(56.0260°N, 10.2097°E)
Time: 07:03:12
(UTC+00:00)
Language:

Vanguard 3 - Orbit

View from above orbital plane
View from above orbital plane
View from above satellite
View from above satellite

Ground track
Ground track

The orbit data is extracted from the following two-line orbital elements,

1 00020U 59007A   21204.92867896  .00000150  00000-0  45705-4 0  9998
2 00020  33.3504 191.6292 1665967 236.6466 106.3642 11.55807675277064
Epoch (UTC): 23 July 2021 22:17:17
Eccentricity: 0.1665967
inclination: 33.3504°
perigee height: 508 km
apogee height: 3261 km
right ascension of ascending node: 191.6292°
argument of perigee: 236.6466°
revolutions per day: 11.55807675
mean anomaly at epoch: 106.3642°
orbit number at epoch: 27706

The dashed part of the orbit path shows where the satellite is in the earth's shadow,  

DLR